Home   Weather   Dammam   Past weeks

Flag for Saudi Arabia Past Weather in Dammam, Saudi Arabia — Yesterday and Last 2 Weeks

Now
90 °F

Clear.


Feels Like: 86 °F
Forecast: 82 / 100 °F
Wind: 2 mph from North

Location: Dhahran

Current Time: Apr 30, 2017 at 10:03:37 pm

Latest Report: Apr 30, 2017 at 8:00 pm


Visibility: 4 mi

Pressure: 29.77 "Hg

Humidity: 22%

Dew Point: 46 °F

Location of DammamLocation

Past Weather in Dammam — Graph

°F

Dammam Temperature Yesterday

Maximum temperature yesterday: 102 °F (at 9:00 am)
Minimum temperature yesterday: 77 °F (at 3:00 am)
Average temperature yesterday: 90 °F

High & Low Weather Summary for the Past Weeks

 TemperatureHumidityPressure
High109 °F (Apr 23, 1:00 pm)74% (Apr 25, 5:00 am)29.92 "Hg (Apr 25, 5:00 am)
Low64 °F (Apr 23, 4:00 am)5% (Apr 23, 1:00 pm)29.65 "Hg (Apr 24, 4:00 pm)
Average86 °F30%29.77 "Hg
* Reported Apr 15 8:00 pm — Apr 30 8:00 pm, Dammam, Weather by CustomWeather, © 2017

Note: Actual official high and low records may vary slightly from our data, if they occured in-between our weather recording intervals... More about our weather records

Advertising

Dammam Weather History for the Previous 24 Hours

Scroll right to see more
 ConditionsComfort  
Time TempWeatherWind HumidityBarometerVisibility
8:00 pm
Sun, Apr 30
90 °FClear.2 mph22%29.77 "Hg4 mi
7:00 pm91 °FClear.6 mph28%29.74 "Hg4 mi
6:00 pm93 °FOvercast.6 mph21%29.74 "Hg2 mi
5:00 pm97 °FOvercast.10 mph19%29.74 "Hg2 mi
4:00 pm95 °FOvercast.8 mph23%29.74 "Hg3 mi
3:00 pm100 °FOvercast.9 mph16%29.71 "Hg4 mi
2:00 pm100 °FOvercast.6 mph21%29.74 "Hg4 mi
1:00 pm99 °FOvercast.6 mph21%29.74 "Hg4 mi
12:00 pm100 °FOvercast.3 mph21%29.77 "Hg4 mi
11:00 am99 °FPartly sunny.3 mph22%29.77 "Hg4 mi
10:00 am97 °FPartly sunny.3 mph25%29.80 "Hg4 mi
9:00 am93 °FPartly sunny.3 mph34%29.80 "Hg4 mi
8:00 am90 °FOvercast.5 mph43%29.80 "Hg4 mi
7:00 am84 °FPartly sunny.3 mph51%29.77 "Hg4 mi
6:00 am82 °FClear.5 mph40%29.77 "Hg4 mi
5:00 am81 °FClear.6 mph30%29.74 "Hg5 mi
4:00 am82 °FClear.5 mph28%29.74 "Hg10 mi
3:00 am81 °FClear.6 mph30%29.71 "Hg10 mi
2:00 am81 °FClear.8 mph30%29.71 "Hg10 mi
1:00 am84 °FClear.12 mph29%29.74 "Hg10 mi
12:00 am82 °FClear.5 mph32%29.71 "Hg10 mi
11:00 pm
Sat, Apr 29
84 °FClear.6 mph33%29.74 "Hg10 mi
10:00 pm86 °FClear.7 mph29%29.74 "Hg10 mi
Weather by CustomWeather, © 2017

See weather overviewHow to use our weather pages